Find Starlink 32704

NORAD ID: 62826 Int'l Des: 2025-018 Owner: SPXS Country: US Constellation: starlink operational
LEOCIRCULAR

現在のビュー

3D地球を読み込み中...

About Starlink 32704

Starlink 32704 (NORAD 62826) is a starlink constellation satellite (v2 mini) launched Jan 24, 2025 by SPXS of US. It operates in LEO, CIRCULAR orbit with a mass of 730.00 kg.

Starlink 32704について

説明を読み込み中...

次回通過

Passes for default location (London). Set your location on the main map for personalized predictions.

高度履歴

Loading altitude history...

軌道要素

1 62826U 25018W 26170.24870422 .00079893 00000-0 19317-2 0 9994
2 62826 53.1535 195.3085 0009154 6.5379 353.5744 15.40431665 78751
Epoch: Jun 19, 2026 • Age: 9 hours

現在のステータス

高度 438.7 km
速度 7.65 km/s
衛星直下点 7.59°N, 61.01°E
打ち上げ日 Jan 24, 2025
運用期間 1.3 years
タイプ internet

技術仕様

分類 Payload
質量 730.00 kg
乾燥質量 700.00 kg
総質量 730.00 kg
長さ 0.30 m
直径 4.10 m
スパン 29.00 m
形状 Box + pan
製造者 SPXS
バスタイプ Starlink V2M
フェーズステータス In Orbit
所有者/国 SPXS/US

Most Searched